Regional Weather Roundup
Issued by NWS

Home | Current Version | Previous Version | Graphics & Text | Print | Product List | Glossary On
Versions: 1 2 3 4 5 6 7 8 9 10 11 12 13 14 15 16 17 18 19 20 21 22 23 24 25 26 27
000
ASUS45 KBOI 240910
RWRID

IDAHO REGIONAL WEATHER ROUNDUP
NATIONAL WEATHER SERVICE BOISE ID
300 AM MDT WED AUG 24 2016

NOTE: "FAIR" INDICATES FEW OR NO CLOUDS BELOW 12000 FEET
WITH NO SIGNIFICANT WEATHER AND/OR OBSTRUCTIONS TO VISIBILITY

IDZ012-014-241000-
SOUTHWEST IDAHO


CITY           SKY/WX    TMP DP  RH WIND       PRES   REMARKS
BOISE          CLEAR     56  37  49 S3        30.09S
CALDWELL       CLEAR     58  41  53 W8        30.10R
MOUNTAIN HOME  CLEAR     55  32  41 W9        30.09R
$$

IDZ016-017-241000-
SOUTHCENTRAL IDAHO


CITY           SKY/WX    TMP DP  RH WIND       PRES   REMARKS
BURLEY         CLEAR     55  27  34 CALM      30.12R
JEROME         CLEAR     54  30  40 S6        30.11S
TWIN FALLS     CLEAR     56  23  27 S15       30.12S
$$

IDZ019>023-241000-
SOUTHEAST IDAHO


CITY           SKY/WX    TMP DP  RH WIND       PRES   REMARKS
IDAHO FALLS    CLEAR     44  31  60 CALM      30.16S
POCATELLO      CLEAR     50  19  29 S8        30.15R
REXBURG        CLEAR     45  28  51 NE6       30.17S
$$

IDZ006-010-011-018-031-032-241000-
CENTRAL IDAHO MOUNTAINS


CITY           SKY/WX    TMP DP  RH WIND       PRES   REMARKS
MCCALL         CLEAR     55  32  41 N9        30.23S
HAILEY         CLEAR     52  28  40 NW8       30.18S
STANLEY          N/A     35  22  58 CALM      30.28S
SALMON         CLEAR    N/A N/A N/A MISG        N/A
CHALLIS        CLEAR     51  31  46 N5        30.20F
$$

IDZ002-004-006-007-026-241000-
NORTHERN IDAHO


CITY           SKY/WX    TMP DP  RH WIND       PRES   REMARKS
LEWISTON       CLEAR     62  39  42 CALM      30.14R
LOWELL           N/A     52  44  74 CALM      30.21R
COEUR D`ALENE  CLEAR     57  45  62 N10       30.17S
MULLAN PASS    CLEAR     49  35  58 VRB5      30.30F
$$




USA.gov is the U.S. government's official web portal to all federal, state and local government web resources and services.